Regional Weather Roundup
Issued by NWS

Home | Current Version | Previous Version | Graphics & Text | Print | Product List | Glossary On
Versions: 1 2 3 4 5 6 7 8 9 10 11 12 13 14 15 16 17 18 19 20 21 22 23 24 25 26 27 28 29 30 31 32 33 34 35 36 37 38 39 40 41 42 43 44 45 46 47 48 49 50
000
ASUS43 KLMK 311810
RWRKY
KENTUCKY REGIONAL WEATHER ROUNDUP
NATIONAL WEATHER SERVICE LOUISVILLE KY
200 PM EDT THU JUL 31 2014

NOTE "FAIR" INDICATES FEW OR NO CLOUDS BELOW 12,000 FEET
WITH NO SIGNIFICANT WEATHER AND/OR OBSTRUCTIONS TO VISIBILITY.

KYZ001>023-026-027-061>063-070>075-311900-
WESTERN AND SOUTH CENTRAL KENTUCKY

CITY           SKY/WX    TMP DP  RH WIND       PRES   REMARKS
PADUCAH        MOSUNNY   81  60  48 SW7       30.10S
HENDERSON      MOSUNNY   82  63  51 W5        30.09F
OWENSBORO      MOSUNNY   81  62  52 VRB3      30.11S
HOPKINSVILLE   PTSUNNY   82  54  38 VRB2      30.10S
BOWLING GREEN  PTSUNNY   81  53  37 W6        30.10F
GLASGOW        PTSUNNY   81  56  42 E7        30.11S
$$

KYZ024-025-028>034-038-045-046-053-311900-
NORTH CENTRAL KENTUCKY

CITY           SKY/WX    TMP DP  RH WIND       PRES   REMARKS
LOUISVILLE/SDF MOSUNNY   84  59  42 W8        30.10S
LOUISVILLE/LOU PTSUNNY   81  56  42 W6        30.10F
FORT KNOX      MOSUNNY   80  56  43 VRB2      30.10F
$$

KYZ035>037-039>044-047>052-055>060-089>105-311900-
NORTHEAST KENTUCKY

CITY           SKY/WX    TMP DP  RH WIND       PRES   REMARKS
LEXINGTON      SUNNY     81  57  43 VRB5      30.13S
COVINGTON      MOSUNNY   80  59  48 W9G21     30.10F
FRANKFORT      SUNNY     80  57  45 VRB3      30.11S
$$

KYZ054-064>069-076>088-106>120-311900-
SOUTHEAST KENTUCKY

CITY           SKY/WX    TMP DP  RH WIND       PRES   REMARKS
JACKSON        MOSUNNY   79  56  45 CALM      30.15S
LONDON         MOSUNNY   78  56  46 VRB3      30.14F
SOMERSET       MOSUNNY   79  57  47 S5        30.13F
MIDDLESBORO    MOSUNNY   80  61  52 SE3       30.13F
MONTICELLO     PTCLDY    81  58  45 CALM      30.14S
$$




USA.gov is the U.S. government's official web portal to all federal, state and local government web resources and services.